Flag for Ireland Weather past 2 weeks in Cork, Ireland

Now
60 °F

Fog.


Feels Like: 60 °F
Forecast: 53 / 67 °F
Wind: 2 mph from Northeast

Location: Cork Airport

Current Time: Sep 19, 2014 at 7:12:00 AM

Latest Report: Sep 19, 2014 at 6:00 AM


Visibility: 2 mi

Pressure: 29.80 "Hg

Humidity: 92%

Dew point: 58 °F

Location of CorkLocation

Historic Weather in Cork — Graph

°F

Cork temperature yesterday

Maximum temperature yesterday: 67 °F (at 3:00 PM)
Minimum temperature yesterday: 59 °F (at 6:00 AM)
Average temperature yesterday: 62 °F

Past Weeks' High & Low Weather Summary

 TemperatureHumidityPressure
High69 °F (Sep 4, 2:00 PM)100% (Sep 4, 7:00 AM)30.29 "Hg (Sep 4, 7:00 AM)
Low46 °F (Sep 7, 7:00 AM)56% (Sep 7, 2:00 PM)29.76 "Hg (Sep 18, 3:00 PM)
Average58 °F87%30.07 "Hg
* Reported Sep 4 5:00 AM — Sep 19 5:00 AM, Cork, Weather by CustomWeather, © 2014

Note: Actual official high and low records may vary slightly from our data, if they occured in-between our weather recording intervals... More about our weather records

Advertising

Cork weather history for previous 24 hours

 ConditionsComfort  
Time TempWeatherWind HumidityBarometerVisibility
5:00 AM
Sep 19
61 °FFog.3 mph88%29.78 "Hg2 mi
4:00 AM61 °FFog.5 mph87%29.79 "Hg2 mi
3:00 AM61 °FFog.3 mph87%29.80 "Hg2 mi
2:00 AM60 °FFog.3 mph86%29.80 "Hg3 mi
1:00 AM60 °FFog.5 mph85%29.80 "Hg4 mi
12:00 AM60 °FFog.5 mph84%29.81 "Hg6 mi
11:00 PM
Sep 18
61 °FFog.6 mph83%29.80 "Hg6 mi
10:00 PM62 °FFog.6 mph79%29.81 "Hg6 mi
9:00 PM62 °FFog.6 mph78%29.80 "Hg6 mi
8:00 PM61 °FFog.6 mph82%29.79 "Hg6 mi
7:00 PM62 °FOvercast.8 mph84%29.79 "Hg11 mi
4:00 PM65 °FOvercast.8 mph78%29.76 "Hg11 mi
3:00 PM67 °FPartly sunny.8 mph76%29.76 "Hg11 mi
2:00 PM65 °FOvercast.8 mph80%29.77 "Hg11 mi
1:00 PM64 °FOvercast.9 mph80%29.77 "Hg11 mi
12:00 PM65 °FOvercast.8 mph79%29.77 "Hg11 mi
11:00 AM62 °FFog.8 mph80%29.79 "Hg9 mi
10:00 AM61 °FFog.8 mph82%29.78 "Hg7 mi
9:00 AM60 °FFog.9 mph86%29.78 "Hg7 mi
8:00 AM59 °FFog.8 mph87%29.77 "Hg6 mi
7:00 AM59 °FFog.7 mph88%29.77 "Hg6 mi
Weather by CustomWeather, © 2014

See weather overviewHow to use our weather pages